| time (UTC) | temp C | wind direction | speed KPH | gust KPH | rain 1hr cm | rain 24hr cm | rain mn cm | humidity % | barometer mb |
| 20260506034039 | 10 | 26 | 11.3 | 16.1 | 0.00 | 0.00 | 0.00 | 80 | 1010.0 |
| 20260506033539 | 10 | 316 | 6.4 | 9.7 | 0.00 | 0.00 | 0.00 | 81 | 1010.0 |
| 20260506033039 | 10 | 294 | 6.4 | 8.0 | 0.00 | 0.00 | 0.00 | 81 | 1010.0 |
| 20260506032538 | 10 | 341 | 4.8 | 6.4 | 0.00 | 0.00 | 0.00 | 82 | 1010.0 |
| 20260506032039 | 10 | 358 | 4.8 | 6.4 | 0.00 | 0.00 | 0.00 | 82 | 1010.0 |
| 20260506031539 | 10 | 319 | 3.2 | 8.0 | 0.00 | 0.00 | 0.00 | 82 | 1010.1 |
| 20260506031039 | 10 | 59 | 4.8 | 9.7 | 0.00 | 0.00 | 0.00 | 82 | 1010.1 |
| 20260506030538 | 10 | 346 | 4.8 | 8.0 | 0.00 | 0.00 | 0.00 | 82 | 1010.2 |
| 20260506030039 | 9 | 12 | 4.8 | 6.4 | 0.00 | 0.00 | 0.00 | 83 | 1010.2 |
| 20260506025539 | 9 | 339 | 3.2 | 8.0 | 0.00 | 0.00 | 0.00 | 83 | 1010.1 |
| 20260506025039 | 9 | 333 | 6.4 | 12.9 | 0.00 | 0.00 | 0.00 | 83 | 1010.3 |
| 20260506024538 | 9 | 315 | 3.2 | 4.8 | 0.00 | 0.00 | 0.00 | 83 | 1010.3 |
| 20260506024058 | 9 | 316 | 1.6 | 9.7 | 0.00 | 0.00 | 0.00 | 83 | 1010.3 |
| 20260506023539 | 9 | 323 | 3.2 | 4.8 | 0.00 | 0.00 | 0.00 | 83 | 1010.3 |
| 20260506023039 | 9 | 343 | 1.6 | 9.7 | 0.00 | 0.00 | 0.00 | 83 | 1010.3 |
| 20260506022539 | 9 | 313 | 1.6 | 4.8 | 0.00 | 0.00 | 0.00 | 83 | 1010.3 |
| 20260506022040 | 9 | 290 | 9.7 | 11.3 | 0.00 | 0.00 | 0.00 | 83 | 1010.4 |
| 20260506021539 | 9 | 318 | 6.4 | 8.0 | 0.00 | 0.00 | 0.00 | 83 | 1010.3 |
| 20260506021039 | 9 | 17 | 8.0 | 14.5 | 0.00 | 0.00 | 0.00 | 83 | 1010.4 |
| 20260506020539 | 9 | 31 | 4.8 | 6.4 | 0.00 | 0.00 | 0.00 | 83 | 1010.4 |
| 20260506020039 | 9 | 7 | 4.8 | 11.3 | 0.00 | 0.00 | 0.00 | 83 | 1010.4 |
| 20260506015539 | 9 | 321 | 3.2 | 11.3 | 0.00 | 0.00 | 0.00 | 83 | 1010.4 |
| 20260506015039 | 9 | 344 | 8.0 | 11.3 | 0.00 | 0.00 | 0.00 | 83 | 1010.5 |
| 20260506014539 | 9 | 304 | 4.8 | 14.5 | 0.00 | 0.00 | 0.00 | 83 | 1010.5 |
| 20260506014039 | 9 | 321 | 3.2 | 8.0 | 0.00 | 0.00 | 0.00 | 83 | 1010.4 |
| 20260506013539 | 9 | 327 | 4.8 | 11.3 | 0.00 | 0.00 | 0.00 | 83 | 1010.4 |
| 20260506013039 | 9 | 314 | 4.8 | 11.3 | 0.00 | 0.00 | 0.00 | 83 | 1010.4 |
| 20260506012539 | 9 | 310 | 3.2 | 8.0 | 0.00 | 0.00 | 0.00 | 83 | 1010.4 |
| 20260506012039 | 9 | 306 | 4.8 | 11.3 | 0.00 | 0.00 | 0.00 | 83 | 1010.5 |
| 20260506011539 | 9 | 332 | 12.9 | 16.1 | 0.00 | 0.00 | 0.00 | 83 | 1010.5 |
| 20260506011039 | 9 | 311 | 4.8 | 9.7 | 0.00 | 0.00 | 0.00 | 83 | 1010.5 |
| 20260506010539 | 9 | 292 | 8.0 | 11.3 | 0.00 | 0.00 | 0.00 | 83 | 1010.5 |
| 20260506010059 | 9 | 336 | 9.7 | 12.9 | 0.00 | 0.00 | 0.00 | 82 | 1010.6 |
| 20260506005559 | 9 | 318 | 9.7 | 11.3 | 0.00 | 0.00 | 0.00 | 82 | 1010.7 |
| 20260506005039 | 9 | 333 | 8.0 | 14.5 | 0.00 | 0.00 | 0.00 | 82 | 1010.7 |
| 20260506004621 | 9 | 339 | 4.8 | 14.5 | 0.00 | 0.00 | 0.00 | 82 | 1010.8 |
| 20260506004039 | 9 | 321 | 8.0 | 14.5 | 0.00 | 0.00 | 0.00 | 82 | 1010.8 |
| 20260506003539 | 9 | 330 | 4.8 | 11.3 | 0.00 | 0.00 | 0.00 | 82 | 1010.8 |
| 20260506003039 | 9 | 296 | 8.0 | 9.7 | 0.00 | 0.00 | 0.00 | 81 | 1010.8 |
| 20260506002539 | 9 | 321 | 8.0 | 9.7 | 0.00 | 0.00 | 0.00 | 81 | 1010.9 |
| 20260506002039 | 9 | 334 | 6.4 | 8.0 | 0.00 | 0.00 | 0.00 | 81 | 1011.0 |
| 20260506001539 | 9 | 36 | 6.4 | 11.3 | 0.00 | 0.00 | 0.00 | 80 | 1011.0 |
| 20260506001039 | 9 | 354 | 6.4 | 6.4 | 0.00 | 0.00 | 0.00 | 80 | 1011.0 |
| 20260506000559 | 9 | 310 | 6.4 | 6.4 | 0.00 | 0.00 | 0.00 | 80 | 1011.0 |
| 20260506000039 | 9 | 326 | 4.8 | 9.7 | 0.00 | 0.00 | 0.00 | 80 | 1011.1 |
| 20260505235539 | 9 | 356 | 3.2 | 8.0 | 0.00 | 0.00 | 0.00 | 80 | 1011.1 |
| 20260505235059 | 9 | 271 | 3.2 | 8.0 | 0.00 | 0.00 | 0.00 | 80 | 1011.1 |
| 20260505234539 | 9 | 25 | 8.0 | 9.7 | 0.00 | 0.00 | 0.00 | 80 | 1011.1 |
| 20260505234039 | 9 | 330 | 4.8 | 9.7 | 0.00 | 0.00 | 0.00 | 80 | 1011.1 |
| 20260505233539 | 8 | 21 | 1.6 | 6.4 | 0.00 | 0.00 | 0.00 | 79 | 1011.2 |
| 20260505233059 | 9 | 21 | 6.4 | 12.9 | 0.00 | 0.00 | 0.00 | 79 | 1011.2 |
| 20260505232539 | 9 | 313 | 4.8 | 6.4 | 0.00 | 0.00 | 0.00 | 78 | 1011.3 |
| 20260505232059 | 9 | 336 | 6.4 | 6.4 | 0.00 | 0.00 | 0.00 | 78 | 1011.3 |
| 20260505231539 | 9 | 283 | 6.4 | 8.0 | 0.00 | 0.00 | 0.00 | 78 | 1011.3 |
| 20260505231040 | 9 | 47 | 8.0 | 9.7 | 0.00 | 0.00 | 0.00 | 78 | 1011.4 |
| 20260505230559 | 9 | 310 | 3.2 | 4.8 | 0.00 | 0.00 | 0.00 | 78 | 1011.4 |
| 20260505230039 | 9 | 3 | 6.4 | 8.0 | 0.00 | 0.00 | 0.00 | 77 | 1011.4 |
| 20260505225539 | 9 | 36 | 4.8 | 8.0 | 0.00 | 0.00 | 0.00 | 77 | 1011.4 |
| 20260505225059 | 9 | 298 | 6.4 | 9.7 | 0.00 | 0.00 | 0.00 | 77 | 1011.5 |
| 20260505224539 | 9 | 301 | 6.4 | 8.0 | 0.00 | 0.00 | 0.00 | 77 | 1011.5 |
| 20260505224039 | 9 | 312 | 4.8 | 11.3 | 0.00 | 0.00 | 0.00 | 77 | 1011.4 |
| 20260505223539 | 9 | 6 | 4.8 | 14.5 | 0.00 | 0.00 | 0.00 | 77 | 1011.4 |
| 20260505223039 | 9 | 329 | 6.4 | 11.3 | 0.00 | 0.00 | 0.00 | 78 | 1011.4 |
| 20260505222539 | 9 | 31 | 3.2 | 11.3 | 0.00 | 0.00 | 0.00 | 78 | 1011.5 |
| 20260505222039 | 9 | 296 | 6.4 | 9.7 | 0.00 | 0.00 | 0.00 | 78 | 1011.5 |
| 20260505221539 | 9 | 319 | 4.8 | 6.4 | 0.00 | 0.00 | 0.00 | 78 | 1011.5 |
| 20260505221039 | 9 | 338 | 8.0 | 11.3 | 0.00 | 0.00 | 0.00 | 78 | 1011.6 |
| 20260505220539 | 9 | 354 | 4.8 | 8.0 | 0.00 | 0.00 | 0.00 | 77 | 1011.6 |
| 20260505220039 | 9 | 325 | 6.4 | 11.3 | 0.00 | 0.00 | 0.00 | 77 | 1011.7 |
| 20260505215539 | 10 | 348 | 8.0 | 11.3 | 0.00 | 0.00 | 0.00 | 77 | 1011.7 |
| 20260505215039 | 10 | 292 | 4.8 | 6.4 | 0.00 | 0.00 | 0.00 | 77 | 1011.7 |
| 20260505214539 | 10 | 326 | 3.2 | 11.3 | 0.00 | 0.00 | 0.00 | 76 | 1011.8 |
| 20260505214039 | 10 | 345 | 6.4 | 9.7 | 0.00 | 0.00 | 0.00 | 76 | 1011.8 |
| 20260505213541 | 10 | 337 | 4.8 | 8.0 | 0.00 | 0.00 | 0.00 | 76 | 1011.8 |
| 20260505213039 | 10 | 306 | 6.4 | 8.0 | 0.00 | 0.00 | 0.00 | 76 | 1011.8 |
| 20260505212539 | 10 | 314 | 4.8 | 8.0 | 0.00 | 0.00 | 0.00 | 75 | 1011.8 |
| 20260505212039 | 10 | 310 | 6.4 | 8.0 | 0.00 | 0.00 | 0.00 | 76 | 1011.9 |
| 20260505211539 | 10 | 291 | 6.4 | 8.0 | 0.00 | 0.00 | 0.00 | 75 | 1011.9 |
| 20260505211039 | 10 | 298 | 6.4 | 9.7 | 0.00 | 0.00 | 0.00 | 75 | 1011.8 |
| 20260505210540 | 10 | 337 | 9.7 | 12.9 | 0.00 | 0.00 | 0.00 | 75 | 1011.9 |
| 20260505210039 | 10 | 284 | 9.7 | 16.1 | 0.00 | 0.00 | 0.00 | 75 | 1011.9 |
| 20260505205539 | 10 | 310 | 9.7 | 12.9 | 0.00 | 0.00 | 0.00 | 75 | 1011.9 |
| 20260505205039 | 10 | 325 | 4.8 | 11.3 | 0.00 | 0.00 | 0.00 | 75 | 1012.0 |
| 20260505204539 | 10 | 305 | 8.0 | 11.3 | 0.00 | 0.00 | 0.00 | 74 | 1011.9 |
| 20260505204039 | 10 | 337 | 6.4 | 9.7 | 0.00 | 0.00 | 0.00 | 74 | 1012.0 |
| 20260505203539 | 10 | 69 | 1.6 | 12.9 | 0.00 | 0.00 | 0.00 | 74 | 1012.0 |
| 20260505203039 | 10 | 313 | 8.0 | 14.5 | 0.00 | 0.00 | 0.00 | 74 | 1012.0 |
| 20260505202539 | 10 | 350 | 8.0 | 16.1 | 0.00 | 0.00 | 0.00 | 74 | 1012.0 |
| 20260505202040 | 10 | 312 | 6.4 | 12.9 | 0.00 | 0.00 | 0.00 | 74 | 1011.9 |
| 20260505201539 | 10 | 300 | 4.8 | 12.9 | 0.00 | 0.00 | 0.00 | 74 | 1011.9 |
| 20260505201059 | 10 | 291 | 8.0 | 12.9 | 0.00 | 0.00 | 0.00 | 74 | 1011.8 |
| 20260505200539 | 10 | 344 | 3.2 | 9.7 | 0.00 | 0.00 | 0.00 | 74 | 1011.9 |
| 20260505200041 | 11 | 350 | 9.7 | 12.9 | 0.00 | 0.00 | 0.00 | 74 | 1011.9 |
| 20260505195559 | 11 | 306 | 6.4 | 8.0 | 0.00 | 0.00 | 0.00 | 74 | 1011.9 |
| 20260505195039 | 11 | 302 | 1.6 | 9.7 | 0.00 | 0.00 | 0.00 | 74 | 1011.8 |
| 20260505194539 | 11 | 298 | 6.4 | 12.9 | 0.00 | 0.00 | 0.00 | 74 | 1011.8 |
| 20260505194039 | 11 | 305 | 9.7 | 16.1 | 0.00 | 0.00 | 0.00 | 74 | 1011.7 |
| 20260505193540 | 11 | 314 | 11.3 | 16.1 | 0.00 | 0.00 | 0.00 | 74 | 1011.6 |
| 20260505193039 | 11 | 316 | 6.4 | 6.4 | 0.00 | 0.00 | 0.00 | 73 | 1011.6 |
| 20260505192539 | 11 | 352 | 8.0 | 14.5 | 0.00 | 0.00 | 0.00 | 73 | 1011.5 |
| 20260505192039 | 11 | 299 | 9.7 | 16.1 | 0.00 | 0.00 | 0.00 | 72 | 1011.4 |
| 20260505191539 | 11 | 316 | 4.8 | 9.7 | 0.00 | 0.00 | 0.00 | 73 | 1011.3 |
| 20260505191040 | 11 | 280 | 8.0 | 12.9 | 0.00 | 0.00 | 0.00 | 73 | 1011.3 |
| 20260505190539 | 11 | 299 | 8.0 | 12.9 | 0.00 | 0.00 | 0.00 | 72 | 1011.2 |
| 20260505190039 | 11 | 324 | 6.4 | 14.5 | 0.00 | 0.00 | 0.00 | 72 | 1011.2 |
| 20260505185539 | 12 | 338 | 9.7 | 19.3 | 0.00 | 0.00 | 0.00 | 72 | 1011.1 |
| 20260505185040 | 12 | 294 | 6.4 | 17.7 | 0.00 | 0.00 | 0.00 | 71 | 1011.1 |
| 20260505184559 | 12 | 318 | 4.8 | 8.0 | 0.00 | 0.00 | 0.00 | 71 | 1011.1 |
| 20260505184119 | 12 | 309 | 11.3 | 16.1 | 0.00 | 0.00 | 0.00 | 70 | 1011.1 |
| 20260505183539 | 12 | 289 | 9.7 | 17.7 | 0.00 | 0.00 | 0.00 | 70 | 1011.1 |
| 20260505183040 | 12 | 355 | 8.0 | 17.7 | 0.00 | 0.00 | 0.00 | 69 | 1010.9 |
| 20260505182542 | 12 | 300 | 8.0 | 8.0 | 0.00 | 0.00 | 0.00 | 69 | 1010.9 |
| 20260505182039 | 12 | 302 | 11.3 | 16.1 | 0.00 | 0.00 | 0.00 | 69 | 1010.8 |
| 20260505181539 | 12 | 319 | 6.4 | 12.9 | 0.00 | 0.00 | 0.00 | 68 | 1010.9 |
| 20260505181039 | 12 | 276 | 8.0 | 11.3 | 0.00 | 0.00 | 0.00 | 68 | 1010.9 |
| 20260505180539 | 13 | 82 | 8.0 | 14.5 | 0.00 | 0.00 | 0.00 | 67 | 1010.9 |
| 20260505180039 | 13 | 309 | 6.4 | 8.0 | 0.00 | 0.00 | 0.00 | 67 | 1010.9 |
| 20260505175539 | 13 | 289 | 4.8 | 17.7 | 0.00 | 0.00 | 0.00 | 67 | 1010.9 |
| 20260505175040 | 13 | 348 | 9.7 | 20.9 | 0.00 | 0.00 | 0.00 | 65 | 1010.9 |
| 20260505174539 | 13 | 24 | 9.7 | 12.9 | 0.00 | 0.00 | 0.00 | 64 | 1010.9 |
| 20260505174039 | 13 | 309 | 6.4 | 16.1 | 0.00 | 0.00 | 0.00 | 64 | 1011.0 |
| 20260505173539 | 13 | 129 | 8.0 | 20.9 | 0.00 | 0.00 | 0.00 | 64 | 1010.9 |
| 20260505173040 | 13 | 311 | 11.3 | 17.7 | 0.00 | 0.00 | 0.00 | 63 | 1011.0 |
| 20260505172540 | 14 | 303 | 3.2 | 8.0 | 0.00 | 0.00 | 0.00 | 63 | 1010.9 |
| 20260505172040 | 13 | 316 | 6.4 | 14.5 | 0.00 | 0.00 | 0.00 | 63 | 1010.9 |
| 20260505171600 | 13 | 303 | 8.0 | 14.5 | 0.00 | 0.00 | 0.00 | 63 | 1010.9 |
| 20260505171039 | 13 | 301 | 4.8 | 9.7 | 0.00 | 0.00 | 0.00 | 63 | 1010.9 |
| 20260505170540 | 13 | 290 | 8.0 | 12.9 | 0.00 | 0.00 | 0.00 | 63 | 1010.9 |
| 20260505170039 | 13 | 5 | 3.2 | 14.5 | 0.00 | 0.00 | 0.00 | 63 | 1011.0 |
| 20260505165540 | 14 | 341 | 12.9 | 19.3 | 0.00 | 0.00 | 0.00 | 62 | 1011.0 |
| 20260505165039 | 14 | 270 | 4.8 | 9.7 | 0.00 | 0.00 | 0.00 | 62 | 1011.1 |
| 20260505164600 | 14 | 294 | 14.5 | 17.7 | 0.00 | 0.00 | 0.00 | 61 | 1011.1 |
| 20260505164039 | 15 | 275 | 8.0 | 14.5 | 0.00 | 0.00 | 0.00 | 60 | 1011.1 |
| 20260505163540 | 15 | 295 | 4.8 | 9.7 | 0.00 | 0.00 | 0.00 | 62 | 1011.0 |
| 20260505163040 | 14 | 252 | 3.2 | 11.3 | 0.00 | 0.00 | 0.00 | 62 | 1011.0 |
| 20260505162540 | 15 | 309 | 8.0 | 14.5 | 0.00 | 0.00 | 0.00 | 61 | 1011.1 |
| 20260505162059 | 15 | 287 | 4.8 | 11.3 | 0.00 | 0.00 | 0.00 | 60 | 1011.0 |
| 20260505161559 | 15 | 312 | 8.0 | 12.9 | 0.00 | 0.00 | 0.00 | 60 | 1011.1 |
| 20260505161039 | 15 | 329 | 8.0 | 14.5 | 0.00 | 0.00 | 0.00 | 59 | 1011.2 |
| 20260505160540 | 16 | 253 | 1.6 | 6.4 | 0.00 | 0.00 | 0.00 | 57 | 1011.1 |
| 20260505153040 | 15 | 300 | 8.0 | 17.7 | 0.00 | 0.00 | 0.00 | 58 | 1011.1 |
| 20260505152540 | 15 | 290 | 4.8 | 8.0 | 0.00 | 0.00 | 0.00 | 58 | 1011.1 |
| 20260505152040 | 16 | 265 | 6.4 | 8.0 | 0.00 | 0.00 | 0.00 | 58 | 1011.0 |
| 20260505151559 | 16 | 287 | 4.8 | 9.7 | 0.00 | 0.00 | 0.00 | 57 | 1011.2 |
| 20260505151039 | 16 | 153 | 3.2 | 6.4 | 0.00 | 0.00 | 0.00 | 57 | 1011.2 |
| 20260505150540 | 15 | 318 | 4.8 | 11.3 | 0.00 | 0.00 | 0.00 | 58 | 1011.2 |
| 20260505140340 | 15 | 297 | 4.8 | 9.7 | 0.00 | 0.00 | 0.00 | 59 | 1011.5 |
| 20260505130140 | 15 | 272 | 8.0 | 16.1 | 0.00 | 0.00 | 0.00 | 54 | 1011.8 |
| 20260505124640 | 16 | 293 | 3.2 | 8.0 | 0.00 | 0.00 | 0.00 | 55 | 1011.8 |
| 20260505124140 | 15 | 152 | 3.2 | 11.3 | 0.00 | 0.00 | 0.00 | 56 | 1011.9 |
| 20260505123640 | 15 | 284 | 8.0 | 17.7 | 0.00 | 0.00 | 0.00 | 55 | 1011.9 |
| 20260505123110 | 16 | 171 | 6.4 | 12.9 | 0.00 | 0.00 | 0.00 | 52 | 1012.0 |
| 20260505122610 | 16 | 145 | 4.8 | 8.0 | 0.00 | 0.00 | 0.00 | 55 | 1012.0 |
| 20260505122010 | 16 | 289 | 4.8 | 8.0 | 0.00 | 0.00 | 0.00 | 53 | 1012.0 |
| 20260505121440 | 16 | 275 | 6.4 | 11.3 | 0.00 | 0.00 | 0.00 | 55 | 1011.9 |
| 20260505121000 | 16 | 330 | 8.0 | 16.1 | 0.00 | 0.00 | 0.00 | 54 | 1011.9 |
| 20260505120440 | 16 | 281 | 4.8 | 14.5 | 0.00 | 0.00 | 0.00 | 54 | 1011.8 |
| 20260505115941 | 15 | 303 | 12.9 | 16.1 | 0.00 | 0.00 | 0.00 | 57 | 1011.9 |
| 20260505115500 | 15 | 315 | 12.9 | 16.1 | 0.00 | 0.00 | 0.00 | 57 | 1011.9 |
| 20260505114940 | 15 | 230 | 3.2 | 8.0 | 0.00 | 0.00 | 0.00 | 58 | 1012.0 |
| 20260505114440 | 15 | 204 | 6.4 | 16.1 | 0.00 | 0.00 | 0.00 | 57 | 1012.0 |
| 20260505113940 | 15 | 286 | 9.7 | 11.3 | 0.00 | 0.00 | 0.00 | 57 | 1012.1 |
| 20260505113440 | 15 | 249 | 9.7 | 22.5 | 0.00 | 0.00 | 0.00 | 58 | 1012.1 |
| 20260505112910 | 15 | 295 | 16.1 | 16.1 | 0.00 | 0.00 | 0.00 | 55 | 1012.0 |
| 20260505112310 | 15 | 76 | 8.0 | 9.7 | 0.00 | 0.00 | 0.00 | 59 | 1012.2 |
| 20260505111740 | 15 | 282 | 4.8 | 8.0 | 0.00 | 0.00 | 0.00 | 59 | 1012.4 |
| 20260505111240 | 15 | 312 | 8.0 | 11.3 | 0.00 | 0.00 | 0.00 | 57 | 1012.3 |
| 20260505110740 | 14 | 303 | 11.3 | 16.1 | 0.00 | 0.00 | 0.00 | 58 | 1012.3 |
| 20260505110240 | 15 | 352 | 6.4 | 9.7 | 0.00 | 0.00 | 0.00 | 55 | 1012.5 |
| 20260505102200 | 15 | 227 | 11.3 | 12.9 | 0.00 | 0.00 | 0.00 | 62 | 1012.7 |
| 20260505101700 | 15 | 83 | 1.6 | 4.8 | 0.00 | 0.00 | 0.00 | 62 | 1012.7 |
| 20260505101140 | 13 | 331 | 8.0 | 12.9 | 0.00 | 0.00 | 0.00 | 63 | 1012.7 |
| 20260505100640 | 15 | 296 | 3.2 | 14.5 | 0.00 | 0.00 | 0.00 | 61 | 1012.7 |
| 20260505100140 | 15 | 307 | 6.4 | 11.3 | 0.00 | 0.00 | 0.00 | 59 | 1012.8 |
| 20260505095640 | 15 | 243 | 3.2 | 9.7 | 0.00 | 0.00 | 0.00 | 61 | 1012.8 |
| 20260505095140 | 15 | 210 | 3.2 | 16.1 | 0.00 | 0.00 | 0.00 | 59 | 1012.9 |
| 20260505094700 | 15 | 318 | 3.2 | 3.2 | 0.00 | 0.00 | 0.00 | 59 | 1012.8 |
| 20260505094140 | 14 | 335 | 3.2 | 11.3 | 0.00 | 0.00 | 0.00 | 61 | 1012.9 |
| 20260505093641 | 15 | 79 | 3.2 | 6.4 | 0.00 | 0.00 | 0.00 | 62 | 1013.0 |
| 20260505093140 | 14 | 166 | 8.0 | 9.7 | 0.00 | 0.00 | 0.00 | 62 | 1012.9 |
| 20260505092700 | 13 | 263 | 6.4 | 9.7 | 0.00 | 0.00 | 0.00 | 64 | 1012.9 |
| 20260505092200 | 14 | 352 | 4.8 | 8.0 | 0.00 | 0.00 | 0.00 | 61 | 1012.9 |
| 20260505091610 | 15 | 238 | 6.4 | 14.5 | 0.00 | 0.00 | 0.00 | 62 | 1013.0 |
| 20260505091040 | 14 | 308 | 6.4 | 11.3 | 0.00 | 0.00 | 0.00 | 64 | 1013.0 |
| 20260505090600 | 14 | 323 | 3.2 | 11.3 | 0.00 | 0.00 | 0.00 | 63 | 1013.0 |
| 20260505090040 | 14 | 253 | 3.2 | 8.0 | 0.00 | 0.00 | 0.00 | 65 | 1013.0 |
| 20260505085540 | 14 | 303 | 6.4 | 11.3 | 0.00 | 0.00 | 0.00 | 65 | 1012.9 |
| 20260505085100 | 13 | 301 | 11.3 | 22.5 | 0.00 | 0.00 | 0.00 | 65 | 1013.0 |
| 20260505084540 | 14 | 283 | 4.8 | 11.3 | 0.00 | 0.00 | 0.00 | 65 | 1012.9 |
| 20260505084040 | 14 | 230 | 8.0 | 14.5 | 0.00 | 0.00 | 0.00 | 66 | 1012.9 |
| 20260505083600 | 13 | 293 | 8.0 | 12.9 | 0.00 | 0.00 | 0.00 | 68 | 1012.9 |
| 20260505083040 | 13 | 114 | 3.2 | 11.3 | 0.00 | 0.00 | 0.00 | 68 | 1012.9 |
| 20260505082540 | 13 | 289 | 3.2 | 6.4 | 0.00 | 0.00 | 0.00 | 71 | 1012.9 |
| 20260505082101 | 12 | 326 | 6.4 | 8.0 | 0.00 | 0.00 | 0.00 | 75 | 1012.9 |
| 20260505081540 | 11 | 312 | 9.7 | 14.5 | 0.00 | 0.00 | 0.00 | 75 | 1012.9 |
| 20260505081040 | 11 | 296 | 6.4 | 11.3 | 0.00 | 0.00 | 0.00 | 76 | 1012.9 |
| 20260505080600 | 11 | 321 | 11.3 | 16.1 | 0.00 | 0.00 | 0.00 | 76 | 1012.9 |
| 20260505080041 | 11 | 296 | 4.8 | 11.3 | 0.00 | 0.00 | 0.00 | 77 | 1012.7 |
| 20260505075540 | 11 | 92 | 4.8 | 14.5 | 0.00 | 0.00 | 0.00 | 77 | 1012.7 |
| 20260505075040 | 11 | 304 | 9.7 | 16.1 | 0.00 | 0.00 | 0.00 | 78 | 1012.7 |
| 20260505074540 | 11 | 291 | 12.9 | 17.7 | 0.00 | 0.00 | 0.00 | 78 | 1012.8 |
| 20260505074041 | 11 | 16 | 6.4 | 12.9 | 0.00 | 0.00 | 0.00 | 79 | 1012.9 |
| 20260505073541 | 11 | 306 | 6.4 | 11.3 | 0.00 | 0.00 | 0.00 | 80 | 1013.0 |
| 20260505073040 | 11 | 313 | 8.0 | 9.7 | 0.00 | 0.00 | 0.00 | 81 | 1013.0 |
| 20260505072540 | 11 | 226 | 1.6 | 9.7 | 0.00 | 0.00 | 0.00 | 82 | 1013.0 |
| 20260505072040 | 11 | 304 | 8.0 | 9.7 | 0.00 | 0.00 | 0.00 | 83 | 1013.1 |
| 20260505071540 | 11 | 317 | 3.2 | 8.0 | 0.00 | 0.00 | 0.00 | 83 | 1013.0 |
| 20260505071041 | 11 | 305 | 8.0 | 14.5 | 0.00 | 0.00 | 0.00 | 83 | 1013.1 |
| 20260505070540 | 11 | 292 | 6.4 | 16.1 | 0.00 | 0.00 | 0.00 | 84 | 1013.0 |
| 20260505070100 | 11 | 323 | 3.2 | 16.1 | 0.00 | 0.00 | 0.00 | 84 | 1013.1 |
| 20260505065540 | 11 | 300 | 8.0 | 12.9 | 0.00 | 0.00 | 0.00 | 84 | 1013.2 |
| 20260505065041 | 10 | 276 | 6.4 | 11.3 | 0.00 | 0.00 | 0.00 | 84 | 1013.3 |
| 20260505064540 | 11 | 336 | 6.4 | 9.7 | 0.00 | 0.00 | 0.00 | 85 | 1013.2 |
| 20260505064040 | 10 | 309 | 4.8 | 8.0 | 0.00 | 0.00 | 0.00 | 85 | 1013.3 |
| 20260505063540 | 10 | 318 | 6.4 | 11.3 | 0.00 | 0.00 | 0.00 | 85 | 1013.3 |
| 20260505063040 | 10 | 285 | 3.2 | 4.8 | 0.00 | 0.00 | 0.00 | 85 | 1013.4 |
| 20260505062540 | 10 | 295 | 3.2 | 4.8 | 0.00 | 0.00 | 0.00 | 86 | 1013.5 |
| 20260505062040 | 10 | 291 | 4.8 | 11.3 | 0.00 | 0.00 | 0.00 | 86 | 1013.5 |
| 20260505061541 | 10 | 352 | 6.4 | 16.1 | 0.00 | 0.00 | 0.00 | 86 | 1013.5 |
| 20260505061040 | 10 | 341 | 8.0 | 16.1 | 0.00 | 0.00 | 0.00 | 86 | 1013.5 |
| 20260505060542 | 10 | 317 | 8.0 | 9.7 | 0.00 | 0.00 | 0.00 | 86 | 1013.4 |
| 20260505060040 | 10 | 311 | 8.0 | 11.3 | 0.00 | 0.00 | 0.00 | 86 | 1013.4 |
| 20260505055540 | 10 | 9 | 4.8 | 11.3 | 0.00 | 0.00 | 0.00 | 86 | 1013.4 |
| 20260505055040 | 10 | 315 | 6.4 | 16.1 | 0.00 | 0.00 | 0.00 | 86 | 1013.5 |
| 20260505054540 | 10 | 336 | 8.0 | 16.1 | 0.00 | 0.00 | 0.00 | 86 | 1013.5 |
| 20260505054041 | 10 | 305 | 4.8 | 8.0 | 0.00 | 0.00 | 0.00 | 86 | 1013.5 |
| 20260505053600 | 10 | 11 | 6.4 | 9.7 | 0.00 | 0.00 | 0.00 | 86 | 1013.4 |
| 20260505053040 | 10 | 292 | 3.2 | 8.0 | 0.00 | 0.00 | 0.00 | 86 | 1013.4 |
| 20260505052541 | 10 | 323 | 3.2 | 9.7 | 0.00 | 0.00 | 0.00 | 86 | 1013.3 |
| 20260505052040 | 10 | 323 | 8.0 | 11.3 | 0.00 | 0.00 | 0.00 | 86 | 1013.3 |
| 20260505051540 | 10 | 325 | 4.8 | 8.0 | 0.00 | 0.00 | 0.00 | 86 | 1013.2 |
| 20260505051040 | 10 | 309 | 4.8 | 9.7 | 0.00 | 0.00 | 0.00 | 86 | 1013.2 |
| 20260505050540 | 10 | 303 | 9.7 | 14.5 | 0.00 | 0.00 | 0.00 | 86 | 1013.2 |
| 20260505041541 | 10 | 303 | 4.8 | 8.0 | 0.00 | 0.20 | 0.00 | 86 | 1013.1 |
| 20260505041041 | 10 | 311 | 8.0 | 16.1 | 0.00 | 0.20 | 0.00 | 86 | 1013.0 |
| 20260505040540 | 10 | 235 | 4.8 | 9.7 | 0.00 | 0.20 | 0.00 | 86 | 1013.1 |
| 20260505040041 | 10 | 300 | 3.2 | 6.4 | 0.00 | 0.20 | 0.00 | 86 | 1013.1 |
| 20260505035541 | 10 | 301 | 6.4 | 12.9 | 0.00 | 0.20 | 0.00 | 86 | 1013.2 |
| 20260505035041 | 10 | 323 | 6.4 | 12.9 | 0.00 | 0.20 | 0.00 | 86 | 1013.2 |
| 20260505034601 | 10 | 314 | 8.0 | 11.3 | 0.00 | 0.20 | 0.00 | 86 | 1013.1 |